{"data":{"norad_id":68706,"intl_designator":"2026-081H","name":"STARLINK-37319","alt_names":[],"object_type":"PAYLOAD","status":"ACTIVE","operator":null,"country":"US","launch_date":"2026-04-14","launch_site_code":"AFETR","launch_vehicle":null,"mission":null,"orbit_class":"UNKNOWN","rcs_meters":null,"size_class":null,"mass_kg":null,"dimensions":null,"purposes":["comms"],"wikipedia_slug":null,"has_3d_model":false,"image_url":null,"decayed_at":null,"tle_current":{"epoch":"2026-09-19T13:39:20.257344Z","epoch_age_seconds":124594,"freshness":"FRESH","line1":"1 68706U 26081H   26262.56898446  .00022537  00000+0  67616-3 0  9999","line2":"2 68706  53.1585 210.2257 0000392 134.2081 225.8954 15.34399610 24471","mean_motion":15.3439961,"eccentricity":3.92e-5,"inclination_deg":53.1585,"raan_deg":210.2257,"arg_perigee_deg":134.2081,"mean_anomaly_deg":225.8954,"bstar":0.00067616,"rev_number":2447,"period_min":93.84778193472,"perigee_km":462.43623838668,"apogee_km":462.97256035239,"semimajor_km":6840.8413993695,"source":"CELESTRAK","updated_at":"2026-09-20T09:00:43.958482Z"}}}